Stations météo

réclame
Mon MeteoGroup
Capel Curig, Grande-Bretagne (3305): Température de l'air & dewpoint: 23.05.2020 07:00:00 - 29.05.2020 07:00:00 (BST)Capel Curig, Grande-Bretagne (3305): Température de l'air -20cm & Température de l'air -100cm: 23.05.2020 07:00:00 - 29.05.2020 07:00:00 (BST)Capel Curig, Grande-Bretagne (3305): Vitesse du vent & gusts: 23.05.2020 07:00:00 - 29.05.2020 07:00:00 (BST)Capel Curig, Grande-Bretagne (3305): Direction du vent: 23.05.2020 07:00:00 - 29.05.2020 07:00:00 (BST)Capel Curig, Grande-Bretagne (3305): reduced air pressure: 23.05.2020 07:00:00 - 29.05.2020 07:00:00 (BST)Capel Curig, Grande-Bretagne (3305): visibility: 23.05.2020 07:00:00 - 29.05.2020 07:00:00 (BST)Capel Curig, Grande-Bretagne (3305): Quantités de précipitations: 23.05.2020 07:00:00 - 29.05.2020 07:00:00 (BST)
Date & Time tt [°C] td [°C] tt -20cm [°C] tt -100cm [°C] ff [km/h] ff [knt] fx [km/h] fx [knt] dd ppp [hPa] vv [km] rr [mm]
29.05.2020 07:00:00 10,5 8,3 - - 4 2 - - WNW 1029,3 30 0,0
29.05.2020 06:00:00 8,5 7,3 - - 4 2 - - SW 1029,9 35 0,0
29.05.2020 05:00:00 7,8 6,2 - - 4 2 - - NNE 1029,9 45 0,0
29.05.2020 04:00:00 8,7 7,2 - - 4 2 - - WSW 1029,9 30 0,0
29.05.2020 03:00:00 9,8 8,0 - - 2 1 - - SSE 1029,8 45 0,0
29.05.2020 02:00:00 10,4 8,7 - - 4 2 - - WSW 1030,2 35 0,0
29.05.2020 01:00:00 11,5 9,7 - - 5 3 - - ENE 1030,3 29 0,0
29.05.2020 00:00:00 12,2 9,8 - - 4 2 - - WNW 1030,3 30 0,0
28.05.2020 23:00:00 14,3 10,8 - - 4 2 - - ENE 1030,2 40 0,0
28.05.2020 22:00:00 16,3 11,6 - - 8 4 - - NE 1029,9 35 0,0
28.05.2020 21:00:00 18,4 11,5 - - 9 5 - - E 1029,7 - 0,0
28.05.2020 20:00:00 19,9 11,9 - - 11 6 - - ENE 1029,5 - 0,0
28.05.2020 19:00:00 21,2 11,5 - - 13 7 - - NE 1029,5 - 0,0
28.05.2020 18:00:00 22,0 11,7 - - 16 9 - - NE 1029,8 - 0,0
28.05.2020 17:00:00 22,6 12,6 - - 15 8 - - ENE 1030,1 - 0,0
28.05.2020 16:00:00 22,7 12,4 - - 16 9 - - NE 1030,6 - 0,0
28.05.2020 15:00:00 23,0 12,4 - - 18 10 - - ENE 1031,0 - 0,0
28.05.2020 14:00:00 23,8 10,1 - - 8 4 - - W 1031,3 - 0,0
28.05.2020 13:00:00 23,0 10,4 - - 8 4 - - E 1031,8 - 0,0
28.05.2020 12:00:00 22,1 9,8 - - 5 3 - - WNW 1032,4 - 0,0
28.05.2020 11:00:00 21,4 9,2 - - 9 5 - - NE 1032,9 50 0,0
28.05.2020 10:00:00 20,3 12,3 11,9 10,7 8 4 - - NE 1033,3 30 0,0
28.05.2020 09:00:00 16,9 10,6 - - 5 3 - - E 1034,0 21 0,0
28.05.2020 08:00:00 13,2 9,9 - - 2 1 - - ESE 1034,7 35 0,0
28.05.2020 07:00:00 9,0 7,6 - - 2 1 - - W 1035,4 20 0,0
28.05.2020 06:00:00 6,8 5,7 - - 2 1 - - SW 1035,9 30 0,0
28.05.2020 05:00:00 6,5 5,3 - - 2 1 - - WSW 1036,1 22 0,0
28.05.2020 04:00:00 7,1 6,1 - - 4 2 - - SW 1036,3 29 0,0
28.05.2020 03:00:00 7,1 5,6 - - 2 1 - - WSW 1036,4 21 0,0
28.05.2020 02:00:00 7,4 5,7 - - 4 2 - - NW 1036,6 30 0,0
28.05.2020 01:00:00 8,6 6,4 - - 4 2 - - WSW 1036,8 27 0,0
28.05.2020 00:00:00 9,8 6,8 - - 2 1 - - SSE 1036,8 20 0,0
27.05.2020 23:00:00 12,1 7,0 - - 9 5 - - NE 1037,0 27 0,0
27.05.2020 22:00:00 13,2 7,2 - - 8 4 - - NE 1036,9 30 0,0
27.05.2020 21:00:00 14,8 7,4 - - 11 6 - - E 1036,7 21 0,0
27.05.2020 20:00:00 16,5 7,7 - - 13 7 - - E 1036,2 27 0,0
27.05.2020 19:00:00 17,4 8,5 - - 18 10 - - NE 1036,0 22 0,0
27.05.2020 18:00:00 18,1 8,5 - - 18 10 - - NE 1036,1 30 0,0
27.05.2020 17:00:00 18,8 7,9 - - 22 12 - - NE 1036,0 29 0,0
27.05.2020 16:00:00 19,1 8,0 - - 15 8 - - ENE 1036,2 23 0,0
27.05.2020 15:00:00 19,2 8,6 - - 15 8 - - ENE 1036,5 30 0,0
27.05.2020 14:00:00 19,1 8,1 - - 13 7 - - ENE 1036,6 30 0,0
27.05.2020 13:00:00 18,9 8,4 - - 18 10 - - E 1037,0 30 0,0
27.05.2020 12:00:00 18,5 8,5 - - 15 8 - - E 1037,0 14 0,0
27.05.2020 11:00:00 17,3 7,5 - - 13 7 - - E 1037,5 35 0,0
27.05.2020 10:00:00 16,4 6,4 11,4 10,5 13 7 - - E 1037,7 45 0,0
27.05.2020 09:00:00 14,7 8,7 - - 13 7 - - NE 1037,8 35 0,0
27.05.2020 08:00:00 9,2 8,1 - - 2 1 - - E 1038,4 20 0,0
27.05.2020 07:00:00 5,7 5,4 - - 0 0 - - N 1038,6 20 0,0
27.05.2020 06:00:00 4,4 4,1 - - 0 0 - - N 1038,8 23 0,0
27.05.2020 05:00:00 4,2 3,8 - - 0 0 - - N 1038,6 30 0,0
27.05.2020 04:00:00 4,6 4,2 - - 0 0 - - N 1038,6 12 0,0
27.05.2020 03:00:00 4,6 4,2 - - 4 2 - - WSW 1038,9 23 0,0
27.05.2020 02:00:00 4,7 4,1 - - 2 1 - - W 1039,1 12 0,0
27.05.2020 01:00:00 5,7 4,8 - - 2 1 - - E 1039,3 5 0,0
27.05.2020 00:00:00 7,6 6,5 - - 2 1 - - NNE 1039,0 29 0,0
26.05.2020 23:00:00 9,3 7,7 - - 4 2 - - ENE 1038,6 45 0,0
26.05.2020 22:00:00 11,1 7,8 - - 9 5 - - NE 1038,3 14 0,0
26.05.2020 21:00:00 13,0 9,0 - - 9 5 - - ENE 1037,8 35 0,0
26.05.2020 20:00:00 15,0 9,8 - - 11 6 - - N 1037,5 35 0,0
26.05.2020 19:00:00 16,1 10,5 - - 13 7 - - WNW 1037,2 40 0,0
26.05.2020 18:00:00 16,8 11,5 - - 8 4 - - W 1037,2 40 0,0
26.05.2020 17:00:00 16,4 11,2 - - 13 7 - - SW 1037,2 35 0,0
26.05.2020 16:00:00 16,7 11,7 - - 11 6 - - WSW 1037,4 35 0,0
26.05.2020 15:00:00 16,3 12,2 - - 13 7 - - WSW 1037,5 30 0,0
26.05.2020 14:00:00 15,3 11,6 - - 13 7 - - W 1037,5 21 0,0
26.05.2020 13:00:00 14,3 11,6 - - 15 8 - - WSW 1037,8 35 0,0
26.05.2020 12:00:00 14,3 11,9 - - 15 8 - - W 1037,5 50 0,0
26.05.2020 11:00:00 13,9 11,8 - - 15 8 - - W 1037,3 45 0,0
26.05.2020 10:00:00 13,1 11,6 11,2 10,4 13 7 - - W 1037,2 30 0,0
26.05.2020 09:00:00 12,2 11,2 - - 13 7 - - W 1037,0 11 0,0
26.05.2020 08:00:00 12,0 10,8 - - 11 6 - - W 1036,6 24 0,0
26.05.2020 07:00:00 11,3 10,9 - - 22 12 - - SW 1036,2 30 0,0
26.05.2020 06:00:00 11,1 10,6 - - 21 11 - - WSW 1035,8 9 0,0
26.05.2020 05:00:00 11,0 10,4 - - 28 15 - - SW 1035,3 4,1 0,0
26.05.2020 04:00:00 11,2 9,9 - - 31 17 - - SW 1035,0 7 0,0
26.05.2020 03:00:00 11,0 9,2 - - 21 11 - - WSW 1035,1 35 0,0
26.05.2020 02:00:00 10,9 8,5 - - 35 19 - - SW 1035,0 35 0,0
26.05.2020 01:00:00 10,6 7,7 - - 34 18 52 28 SW 1035,0 45 0,0
26.05.2020 00:00:00 10,9 7,5 - - 41 22 50 27 SSW 1034,5 35 0,0
25.05.2020 23:00:00 10,8 7,1 - - 37 20 46 25 SW 1034,6 35 0,0
25.05.2020 22:00:00 11,1 6,2 - - 34 18 48 26 WSW 1034,8 50 0,0
25.05.2020 21:00:00 11,4 5,9 - - 31 17 55 30 SW 1034,2 40 0,0
25.05.2020 20:00:00 12,3 5,0 - - 41 22 55 30 SW 1033,8 50 0,0
25.05.2020 19:00:00 13,1 6,3 - - 42 23 54 29 SW 1033,7 35 0,0
25.05.2020 18:00:00 14,1 5,3 - - 39 21 57 31 WSW 1033,9 30 0,0
25.05.2020 17:00:00 14,3 6,7 - - 35 19 61 33 WSW 1033,7 29 0,0
25.05.2020 16:00:00 14,9 5,4 - - 46 25 59 32 SW 1033,6 29 0,0
25.05.2020 15:00:00 15,4 7,2 - - 41 22 57 31 SW 1034,0 45 0,0
25.05.2020 14:00:00 15,3 5,2 - - 39 21 54 29 WSW 1034,2 35 0,0
25.05.2020 13:00:00 14,7 6,5 - - 28 15 - - WSW 1034,4 30 0,0
25.05.2020 12:00:00 14,0 7,1 - - 29 16 - - WSW 1034,6 50 0,0
25.05.2020 11:00:00 12,9 7,6 - - 21 11 - - SW 1034,8 27 0,0
25.05.2020 10:00:00 11,8 7,7 11,0 10,4 29 16 - - SW 1034,6 40 0,0
25.05.2020 09:00:00 10,8 7,3 - - 31 17 - - SW 1034,6 30 0,0
25.05.2020 08:00:00 10,3 7,4 - - 26 14 - - SW 1034,6 17 0,0
25.05.2020 07:00:00 9,9 8,0 - - 18 10 - - W 1034,7 30 0,0
25.05.2020 06:00:00 8,9 7,6 - - 15 8 - - W 1034,8 25 0,0
25.05.2020 05:00:00 9,3 8,0 - - 31 17 46 25 WSW 1034,1 23 0,0
25.05.2020 04:00:00 9,1 7,6 - - 35 19 - - SW 1033,9 25 0,0
25.05.2020 03:00:00 7,9 6,7 - - 16 9 - - WSW 1034,6 20 0,0
25.05.2020 02:00:00 8,8 7,7 - - 13 7 - - W 1034,8 18 0,0
25.05.2020 01:00:00 8,3 7,2 - - 18 10 52 28 WSW 1034,8 19 0,0
25.05.2020 00:00:00 8,7 7,4 - - 22 12 - - WSW 1034,7 15 0,0
24.05.2020 23:00:00 9,1 7,8 - - 21 11 - - WSW 1034,5 17 0,0
24.05.2020 22:00:00 9,4 7,7 - - 28 15 - - WSW 1034,2 16 0,0
24.05.2020 21:00:00 10,3 7,8 - - 29 16 - - SW 1033,6 17 0,0
24.05.2020 20:00:00 11,4 8,4 - - 26 14 - - WSW 1033,1 18 0,0
24.05.2020 19:00:00 12,9 8,2 - - 26 14 - - SW 1032,8 30 0,0
24.05.2020 18:00:00 13,5 7,7 - - 29 16 - - SW 1032,2 23 0,0
24.05.2020 17:00:00 13,8 8,1 - - 35 19 48 26 SW 1032,1 25 0,0
24.05.2020 16:00:00 14,9 9,3 - - 37 20 48 26 SW 1031,6 21 0,0
24.05.2020 15:00:00 14,9 9,3 - - 37 20 50 27 SW 1031,4 14 0,0
24.05.2020 14:00:00 12,4 8,8 - - 41 22 50 27 SW 1031,7 19 0,0
24.05.2020 13:00:00 11,9 9,3 - - 39 21 54 29 SW 1031,5 13 0,0
24.05.2020 12:00:00 12,3 9,1 - - 39 21 50 27 SW 1030,8 19 0,0
24.05.2020 11:00:00 12,4 8,0 - - 35 19 59 32 WSW 1030,1 17 0,0
24.05.2020 10:00:00 11,8 8,4 10,9 10,4 39 21 59 32 WSW 1029,7 21 0,0
24.05.2020 09:00:00 11,6 7,9 - - 31 17 61 33 WSW 1029,2 27 0,0
24.05.2020 08:00:00 11,3 7,9 - - 35 19 57 31 WSW 1028,4 29 0,0
24.05.2020 07:00:00 11,7 8,1 - - 39 21 67 36 WSW 1027,4 35 0,0
24.05.2020 06:00:00 11,5 8,4 - - 44 24 68 37 WSW 1026,5 22 0,0
24.05.2020 05:00:00 11,6 8,7 - - 52 28 68 37 WSW 1025,7 30 0,0
24.05.2020 04:00:00 11,5 8,8 - - 46 25 72 39 WSW 1025,2 25 0,0
24.05.2020 03:00:00 11,8 8,6 - - 55 30 80 43 WSW 1024,4 30 0,0
24.05.2020 02:00:00 11,7 8,5 - - 57 31 74 40 WSW 1024,0 35 0,0
24.05.2020 01:00:00 11,8 8,3 - - 52 28 80 43 WSW 1023,5 28 0,0
24.05.2020 00:00:00 10,9 8,5 - - 46 25 72 39 WSW 1023,7 35 0,2
23.05.2020 23:00:00 9,8 7,4 - - 50 27 72 39 SW 1023,7 5 0,2
23.05.2020 22:00:00 11,2 5,9 - - 46 25 68 37 WSW 1023,1 40 0,0
23.05.2020 21:00:00 11,6 4,7 - - 44 24 70 38 W 1022,3 35 0,0
23.05.2020 20:00:00 11,7 5,3 - - 44 24 74 40 WSW 1021,8 24 0,0
23.05.2020 19:00:00 12,0 4,4 - - 50 27 81 44 W 1021,2 20 0,0
23.05.2020 18:00:00 12,3 3,7 - - 48 26 80 43 W 1020,7 35 0,0
23.05.2020 17:00:00 12,5 3,6 - - 54 29 81 44 W 1019,7 20 0,0
23.05.2020 16:00:00 12,3 4,7 - - 39 21 91 49 W 1019,4 50 0,0
23.05.2020 15:00:00 11,3 6,3 - - 42 23 81 44 WSW 1018,8 29 0,0
23.05.2020 14:00:00 11,5 5,8 - - 54 29 87 47 WSW 1017,7 30 0,0
23.05.2020 13:00:00 10,9 5,6 - - 52 28 81 44 WSW 1016,9 19 0,0
23.05.2020 12:00:00 11,7 3,9 - - 55 30 94 51 WSW 1016,1 35 0,0
23.05.2020 11:00:00 11,0 4,9 - - 57 31 87 47 WSW 1016,0 35 0,0
23.05.2020 10:00:00 10,7 4,7 11,2 10,4 50 27 81 44 WSW 1015,7 29 0,0
23.05.2020 09:00:00 9,9 5,2 - - 54 29 85 46 WSW 1015,1 23 0,0
23.05.2020 08:00:00 9,8 5,2 - - 54 29 85 46 WSW 1015,0 28 0,0
23.05.2020 07:00:00 9,5 5,7 - - 59 32 81 44 WSW 1013,9 19 0,0

tt = Température de l'air
td = dewpoint
tt -20cm = Température de l'air -20cm
tt -100cm = Température de l'air -100cm
ff = Vitesse du vent
fx = gusts
dd = Direction du vent
ppp = reduced air pressure
vv = visibility
rr = Quantités de précipitations

stations d'obs. à proximité